When you browse on this site, cookies collect data to enhance your experience and personalize the content and advertising you see.
Visit our Privacy Policy to learn more. By continuing to use the site, you agree to this use of cookies and data.

Hourly Weather Giumri

Today, 11 July, Saturday

Time Temperature Precipitation Wind Pressure Humidity
00:00 +16°C° 0.2 mm 2 mps 636 mmHg 89%
01:00 +15°C° 0 mm 2 mps 635 mmHg 90%
02:00 +15°C° 0 mm 2 mps 635 mmHg 91%
03:00 +15°C° 0 mm 2 mps 635 mmHg 91%
04:00 +15°C° 0 mm 2 mps 635 mmHg 90%
05:00 +16°C° 0 mm 2 mps 636 mmHg 89%
06:00 +16°C° 0 mm 2 mps 636 mmHg 88%
07:00 +18°C° 0.1 mm 2 mps 636 mmHg 82%
08:00 +19°C° 0.1 mm 3 mps 636 mmHg 75%
09:00 +21°C° 0.1 mm 3 mps 637 mmHg 69%
10:00 +22°C° 1 mm 3 mps 636 mmHg 67%
11:00 +23°C° 1 mm 4 mps 636 mmHg 65%
12:00 +23°C° 1 mm 4 mps 636 mmHg 63%
13:00 +23°C° 0.8 mm 4 mps 636 mmHg 63%
14:00 +23°C° 0.8 mm 4 mps 636 mmHg 63%
15:00 +23°C° 0.8 mm 4 mps 636 mmHg 63%
16:00 +23°C° 0.7 mm 4 mps 635 mmHg 66%
17:00 +22°C° 0.7 mm 4 mps 635 mmHg 68%
18:00 +21°C° 0.7 mm 3 mps 635 mmHg 71%
19:00 +20°C° 0.5 mm 3 mps 635 mmHg 77%
20:00 +18°C° 0.5 mm 3 mps 635 mmHg 82%
21:00 +17°C° 0.5 mm 2 mps 635 mmHg 88%
22:00 +17°C° 0.1 mm 2 mps 634 mmHg 89%
23:00 +16°C° 0.1 mm 2 mps 634 mmHg 89%

Tomorrow, 12 July, Sunday

Time Temperature Precipitation Wind Pressure Humidity
00:00 +16°C° 0.1 mm 2 mps 634 mmHg 90%
01:00 +16°C° 0 mm 2 mps 634 mmHg 90%
02:00 +16°C° 0 mm 2 mps 633 mmHg 91%
03:00 +16°C° 0 mm 2 mps 633 mmHg 91%
04:00 +16°C° 0 mm 2 mps 633 mmHg 90%
05:00 +16°C° 0 mm 2 mps 633 mmHg 89%
06:00 +16°C° 0 mm 2 mps 633 mmHg 89%
07:00 +18°C° 0.1 mm 2 mps 633 mmHg 83%
08:00 +19°C° 0.1 mm 2 mps 634 mmHg 77%
09:00 +21°C° 0.1 mm 2 mps 634 mmHg 71%
10:00 +21°C° 0.9 mm 3 mps 634 mmHg 69%
11:00 +22°C° 0.9 mm 3 mps 634 mmHg 67%
12:00 +24°C° 0.9 mm 3 mps 634 mmHg 65%
13:00 +24°C° 1.3 mm 3 mps 633 mmHg 65%
14:00 +23°C° 1.3 mm 4 mps 633 mmHg 66%
15:00 +23°C° 1.3 mm 4 mps 633 mmHg 66%
16:00 +22°C° 1.2 mm 4 mps 632 mmHg 71%
17:00 +21°C° 1.2 mm 3 mps 632 mmHg 76%
18:00 +20°C° 1.2 mm 3 mps 632 mmHg 82%
19:00 +19°C° 4.6 mm 3 mps 632 mmHg 86%
20:00 +18°C° 4.6 mm 2 mps 632 mmHg 90%
21:00 +17°C° 4.6 mm 2 mps 632 mmHg 94%
22:00 +17°C° 0.9 mm 2 mps 632 mmHg 93%
23:00 +18°C° 0.9 mm 1 mps 632 mmHg 91%

Day after tomorrow, 13 July, Monday

Time Temperature Precipitation Wind Pressure Humidity
00:00 +16°C° 0.9 mm 1 mps 632 mmHg 90%
01:00 +16°C° 0 mm 1 mps 631 mmHg 90%
02:00 +16°C° 0 mm 1 mps 631 mmHg 90%
03:00 +15°C° 0 mm 1 mps 630 mmHg 89%
04:00 +16°C° 0.1 mm 1 mps 630 mmHg 89%
05:00 +16°C° 0.1 mm 1 mps 630 mmHg 88%
06:00 +16°C° 0.1 mm 1 mps 630 mmHg 88%
07:00 +19°C° 0.5 mm 1 mps 631 mmHg 82%
08:00 +20°C° 0.5 mm 1 mps 631 mmHg 76%
09:00 +22°C° 0.5 mm 1 mps 632 mmHg 70%
10:00 +23°C° 0.8 mm 1 mps 632 mmHg 65%
11:00 +24°C° 0.8 mm 1 mps 632 mmHg 60%
12:00 +25°C° 0.8 mm 1 mps 632 mmHg 55%
13:00 +26°C° 0.6 mm 1 mps 632 mmHg 53%
14:00 +26°C° 0.6 mm 1 mps 632 mmHg 52%
15:00 +26°C° 0.6 mm 1 mps 632 mmHg 50%
16:00 +24°C° 2.6 mm 2 mps 631 mmHg 61%
17:00 +20°C° 2.6 mm 3 mps 631 mmHg 73%
18:00 +18°C° 2.6 mm 3 mps 630 mmHg 84%
19:00 +17°C° 1.2 mm 3 mps 630 mmHg 85%
20:00 +17°C° 1.2 mm 2 mps 631 mmHg 85%
21:00 +16°C° 1.2 mm 2 mps 632 mmHg 85%
22:00 +16°C° 0 mm 1 mps 631 mmHg 85%
23:00 +16°C° 0 mm 1 mps 631 mmHg 84%

14 July, Tuesday

Time Temperature Precipitation Wind Pressure Humidity
00:00 +15°C° 0 mm 1 mps 631 mmHg 84%
01:00 +15°C° 0 mm 1 mps 631 mmHg 83%
02:00 +15°C° 0 mm 1 mps 631 mmHg 83%
03:00 +15°C° 0 mm 1 mps 631 mmHg 82%
04:00 +15°C° 0 mm 1 mps 631 mmHg 83%
05:00 +15°C° 0 mm 1 mps 632 mmHg 83%
06:00 +16°C° 0 mm 1 mps 632 mmHg 83%
07:00 +18°C° 0.1 mm 1 mps 633 mmHg 78%
08:00 +20°C° 0.1 mm 1 mps 633 mmHg 73%
09:00 +22°C° 0.1 mm 1 mps 634 mmHg 68%
10:00 +23°C° 0.7 mm 1 mps 634 mmHg 64%
11:00 +24°C° 0.7 mm 2 mps 634 mmHg 60%
12:00 +25°C° 0.7 mm 2 mps 635 mmHg 57%
13:00 +25°C° 0.8 mm 2 mps 635 mmHg 57%
14:00 +25°C° 0.8 mm 2 mps 635 mmHg 57%
15:00 +25°C° 0.8 mm 3 mps 634 mmHg 57%
16:00 +24°C° 0.7 mm 3 mps 634 mmHg 60%
17:00 +24°C° 0.7 mm 3 mps 635 mmHg 63%
18:00 +22°C° 0.7 mm 3 mps 635 mmHg 67%
19:00 +20°C° 0.1 mm 3 mps 635 mmHg 72%
20:00 +18°C° 0.1 mm 3 mps 635 mmHg 76%
21:00 +17°C° 0.1 mm 2 mps 634 mmHg 81%
22:00 +16°C° 0 mm 2 mps 634 mmHg 83%
23:00 +16°C° 0 mm 2 mps 634 mmHg 84%

15 July, Wednesday

Time Temperature Precipitation Wind Pressure Humidity
00:00 +15°C° 0 mm 2 mps 634 mmHg 85%
01:00 +15°C° 0 mm 2 mps 634 mmHg 85%
02:00 +14°C° 0 mm 2 mps 634 mmHg 85%
03:00 +14°C° 0 mm 1 mps 634 mmHg 85%
04:00 +14°C° 0 mm 1 mps 634 mmHg 84%
05:00 +15°C° 0 mm 1 mps 634 mmHg 82%
06:00 +15°C° 0 mm 1 mps 635 mmHg 81%
07:00 +18°C° 0 mm 1 mps 635 mmHg 74%
08:00 +20°C° 0 mm 1 mps 636 mmHg 68%
09:00 +23°C° 0 mm 1 mps 636 mmHg 61%
10:00 +24°C° 0.1 mm 1 mps 636 mmHg 58%
11:00 +25°C° 0.1 mm 1 mps 636 mmHg 54%
12:00 +27°C° 0.1 mm 1 mps 637 mmHg 50%
13:00 +27°C° 0.2 mm 2 mps 636 mmHg 49%
14:00 +27°C° 0.2 mm 2 mps 636 mmHg 49%
15:00 +27°C° 0.2 mm 3 mps 636 mmHg 49%
16:00 +26°C° 0.6 mm 3 mps 636 mmHg 55%
17:00 +25°C° 0.6 mm 3 mps 635 mmHg 61%
18:00 +24°C° 0.6 mm 3 mps 635 mmHg 67%
19:00 +21°C° 0.9 mm 3 mps 635 mmHg 71%
20:00 +19°C° 0.9 mm 2 mps 635 mmHg 75%
21:00 +18°C° 0.9 mm 2 mps 635 mmHg 79%
22:00 +17°C° 0.2 mm 2 mps 635 mmHg 80%
23:00 +17°C° 0.2 mm 2 mps 634 mmHg 80%

16 July, Thursday

Time Temperature Precipitation Wind Pressure Humidity
00:00 +17°C° 0.2 mm 2 mps 634 mmHg 81%
01:00 +16°C° 0.1 mm 2 mps 634 mmHg 82%
02:00 +16°C° 0.1 mm 2 mps 634 mmHg 83%
03:00 +15°C° 0.1 mm 2 mps 634 mmHg 84%
04:00 +16°C° 0.1 mm 2 mps 634 mmHg 84%
05:00 +16°C° 0.1 mm 2 mps 634 mmHg 85%
06:00 +16°C° 0.1 mm 2 mps 634 mmHg 85%
07:00 +18°C° 0.1 mm 2 mps 634 mmHg 81%
08:00 +19°C° 0.1 mm 2 mps 634 mmHg 76%
09:00 +21°C° 0.1 mm 2 mps 635 mmHg 72%
10:00 +23°C° 0.3 mm 2 mps 635 mmHg 67%
11:00 +24°C° 0.3 mm 2 mps 635 mmHg 62%
12:00 +26°C° 0.3 mm 2 mps 635 mmHg 58%
13:00 +26°C° 0.3 mm 2 mps 634 mmHg 56%
14:00 +27°C° 0.3 mm 3 mps 634 mmHg 55%
15:00 +27°C° 0.3 mm 3 mps 634 mmHg 53%
16:00 +26°C° 0.6 mm 3 mps 634 mmHg 60%
17:00 +24°C° 0.6 mm 3 mps 633 mmHg 66%
18:00 +22°C° 0.6 mm 3 mps 633 mmHg 73%
19:00 +20°C° 3.5 mm 3 mps 633 mmHg 78%
20:00 +18°C° 3.5 mm 3 mps 632 mmHg 84%
21:00 +16°C° 3.5 mm 2 mps 632 mmHg 90%
22:00 +16°C° 0.5 mm 2 mps 632 mmHg 88%
23:00 +16°C° 0.5 mm 2 mps 632 mmHg 87%
Show more